Location: Fahnersdorf
(49.3991°N, 12.5474°E)
Time: 09:34:29
(UTC+00:00)

Daily predictions for brighter satellites

Satellite Brightness Start Highest point End
(mag) Time Altitude Azimuth Time Altitude Azimuth Time Altitude Azimuth
CZ-2C R/B 3.0 19:36:44 10° NNE 19:42:23 82° WNW 19:48:00 10° SSW
STARLINK-1237 3.6 19:39:48 10° SW 19:43:55 69° SSE 19:48:03 10° ENE
STARLINK-1083 4.4 19:41:21 10° WNW 19:45:16 41° SW 19:49:10 10° SE
STARLINK-1218 4.3 19:42:38 10° W 19:46:44 58° NNW 19:50:50 10° ENE
STARLINK-1084 3.7 19:43:31 10° WNW 19:47:41 80° NNE 19:51:50 10° ESE
Cosmos 1674 Rocket 4.2 19:44:03 10° SSE 19:48:07 39° E 19:52:13 10° NNE
Meteor 2-4 Rocket 3.7 19:42:51 10° S 19:48:13 89° W 19:53:38 10° NNE
STARLINK-1202 3.6 19:44:46 10° SW 19:48:54 73° SSE 19:53:02 10° ENE
NOSS 2-2 (E) 4.3 19:47:02 10° S 19:49:56 23° ESE 19:53:06 10° ENE
EXPRESS MD2 4.0 19:48:06 10° SSW 19:50:51 31° SE 19:55:29 10° ENE
Cosmos 1378 Rocket 4.4 19:47:09 10° SSE 19:51:05 32° E 19:54:59 10° NNE
STARLINK-1254 4.4 19:47:37 10° W 19:51:43 57° N 19:55:49 10° ENE
STARLINK-1098 3.7 19:48:30 10° WNW 19:52:40 83° NNE 19:56:50 10° ESE
Cosmos 1833 Rocket 3.6 19:47:22 10° NW 19:52:42 45° WSW 19:58:00 10° S
Cosmos 2297 4.2 19:49:35 10° S 19:54:52 41° ESE 20:00:13 10° NE
Cosmos 1943 Rocket 3.5 19:51:39 10° SE 19:55:32 20° E 19:59:28 10° NE
STARLINK-1231 4.4 19:52:37 10° W 19:56:42 56° N 20:00:48 10° ENE
STARLINK-1123 3.7 19:53:28 10° WNW 19:57:38 87° NNE 20:01:47 10° ESE
STARLINK-1246 3.6 19:54:43 10° WSW 19:58:52 81° SSE 20:03:02 10° ENE
Cosmos 2082 Rocket 2.6 19:53:48 10° NNW 19:59:28 64° WSW 20:05:04 10° SSE
IGS 5A 3.6 19:56:03 10° SSE 20:00:08 62° ENE 20:04:16 10° N
Cosmos 1420 Rocket 4.4 19:56:04 10° SSW 20:01:15 69° WNW 20:06:27 10° NNE
Cosmos 1452 Rocket 3.6 19:56:12 10° SSW 20:01:29 87° ESE 20:06:49 10° NNE
STARLINK-1232 4.4 19:57:38 10° W 20:01:43 54° N 20:05:48 10° ENE
Cosmos 332 Rocket 3.8 19:56:53 10° SSW 20:01:46 70° ESE 20:06:39 10° NNE
BREEZE-M DEB 3.8 20:00:01 10° S 20:01:52 18° SE 20:04:51 10° E
Intercosmos 24 3.9 19:58:37 10° NNW 20:02:12 72° W 20:05:58 10° S
STARLINK-1097 3.6 19:58:29 10° WNW 20:02:38 89° SSW 20:06:48 10° ESE
Landsat 7 3.9 19:58:25 10° SSE 20:03:09 69° ENE 20:07:54 10° N
STARLINK-1224 3.6 19:59:41 10° WSW 20:03:50 86° SSE 20:08:00 10° ENE
STARLINK-1208 4.5 20:02:37 10° W 20:06:42 53° N 20:10:46 10° ENE
STARLINK-1099 3.6 20:03:27 10° WNW 20:07:36 85° SSW 20:11:46 10° ESE
Cosmos 1461 3.0 20:04:03 10° SSW 20:08:07 59° SE 20:12:27 10° NE
STARLINK-1225 3.6 20:04:40 10° WSW 20:08:49 90° SSW 20:13:00 10° ENE
Okean 3 4.3 20:06:00 10° SSW 20:10:14 54° WNW 20:14:29 10° N
SAR-Lupe-2 3.7 20:07:06 10° NNE 20:10:38 53° ESE 20:14:09 10° S
Cosmos 2369 Rocket 3.6 20:07:32 10° SE 20:11:27 20° E 20:15:22 10° NE
STARLINK-1271 4.5 20:07:39 10° W 20:11:44 53° N 20:15:48 10° ENE
STARLINK-1104 3.6 20:08:25 10° WNW 20:12:35 81° SSW 20:16:40 10° ESE
STARLINK-1230 3.7 20:09:38 10° WSW 20:13:48 86° NNW 20:17:58 10° ENE
STARLINK-1212 4.1 20:10:52 10° WNW 20:13:52 41° N 20:16:50 10° ENE
STARLINK-1105 4.1 20:11:20 10° WNW 20:14:20 41° N 20:17:18 10° ENE
NOSS 2-2 (C) 3.9 20:11:13 10° S 20:14:24 31° ESE 20:17:54 10° ENE
STARLINK-1247 4.1 20:12:13 10° WNW 20:15:13 41° N 20:18:13 10° ENE
STARLINK-1227 4.1 20:12:44 10° WNW 20:15:42 41° N 20:18:41 10° ENE
STARLINK-1226 4.1 20:13:34 10° WNW 20:16:34 41° N 20:19:34 10° ENE
SL-4 R/B 3.9 20:15:53 10° W 20:17:05 12° WSW 20:18:15 10° SW
STARLINK-1215 4.1 20:14:28 10° WNW 20:17:28 42° N 20:20:29 10° E
STARLINK-1144 3.6 20:13:25 10° WNW 20:17:34 77° SSW 20:21:27 11° ESE
ATLAS 2AS CENTAUR R/B 4.3 20:13:19 10° SSE 20:18:34 19° ESE 20:23:49 10° ENE
STARLINK-1243 3.7 20:14:38 10° WSW 20:18:48 83° NNW 20:22:58 10° ENE
SPOT 5 3.4 20:14:18 11° SE 20:19:16 55° ENE 20:24:31 10° N
STARLINK-1217 4.1 20:16:18 10° WNW 20:19:18 42° N 20:22:18 10° E
NOSS 3-2 (A) 4.2 20:12:22 10° NW 20:19:40 71° NE 20:27:48 11° SE
STARLINK-1229 4.1 20:17:13 10° WNW 20:20:13 42° N 20:23:13 10° E
STARLINK-1270 4.1 20:18:06 10° WNW 20:21:06 42° N 20:24:07 10° E
NOSS 8 (F) 4.2 20:18:31 10° SW 20:21:42 83° NW 20:24:47 10° NE
STARLINK-1103 3.6 20:18:23 10° WNW 20:22:31 72° SSW 20:26:14 13° SE
STARLINK-1189 4.0 20:19:54 10° WNW 20:22:55 42° N 20:25:55 10° E
STARLINK-1236 3.8 20:19:36 10° WSW 20:23:46 79° NNW 20:27:56 10° ENE
STARLINK-1188 4.0 20:20:49 10° WNW 20:23:50 43° N 20:26:50 10° E
ERS-1 Rocket 3.1 20:19:40 11° SSE 20:24:27 68° ENE 20:29:28 10° N
STARLINK-1187 4.0 20:21:55 10° WNW 20:24:54 44° N 20:27:54 10° E
STARLINK-1191 4.0 20:23:15 10° WNW 20:26:16 43° N 20:29:15 10° E
STARLINK-1221 4.0 20:24:13 10° WNW 20:27:13 43° N 20:30:12 10° E
STARLINK-1101 3.7 20:23:22 10° WNW 20:27:30 68° SSW 20:31:00 14° SE
STARLINK-1222 4.0 20:25:04 10° WNW 20:28:04 43° N 20:31:04 10° E
Okean 2 4.4 20:25:56 14° SE 20:28:54 30° E 20:32:34 10° NNE
STARLINK-1214 4.0 20:25:58 10° WNW 20:28:58 43° N 20:31:58 10° E
Cosmos 1066 Rocket 4.1 20:24:02 10° S 20:29:24 73° E 20:34:44 10° NNE
USA 245 3.3 20:28:03 10° S 20:30:54 42° WSW 20:33:20 10° NNW
USA 238 DEB 4.0 20:24:25 10° NW 20:31:37 77° NE 20:38:25 13° SE
USA 238 4.0 20:24:31 10° NW 20:31:43 77° NE 20:38:32 13° SE
STARLINK-1102 3.7 20:28:22 10° WNW 20:32:28 64° SSW 20:35:48 15° SE
STARLINK-1228 3.9 20:30:02 10° WNW 20:33:28 52° NNE 20:36:54 10° E
STARLINK-1269 3.9 20:29:36 10° WSW 20:33:44 73° NNW 20:37:54 10° ENE
Okean 1 Rocket 3.1 20:29:15 10° N 20:33:45 84° W 20:37:54 12° S
Cosmos 1805 3.4 20:30:08 10° N 20:34:02 62° ENE 20:37:07 16° SSE
Resurs 01 Rocket 3.5 20:30:53 10° SSW 20:34:38 26° W 20:38:24 10° NW
Cosmos 2278 Rocket 3.8 20:29:24 10° WSW 20:34:42 39° NW 20:40:03 10° NNE
TSX-5 4.3 20:29:13 10° SSW 20:34:44 84° WNW 20:38:59 10° NNE
Nadezhda 4 Rocket 3.9 20:29:43 10° S 20:35:50 76° E 20:41:58 10° NNE
STARLINK-1235 3.8 20:33:40 10° WNW 20:36:50 50° NNE 20:40:00 10° E
STARLINK-1111 3.8 20:33:20 10° WNW 20:37:26 60° SSW 20:40:34 16° SE
STARLINK-1200 3.9 20:34:34 10° WSW 20:38:42 70° NNW 20:42:52 10° ENE
Cosmos 1455 Rocket 3.9 20:35:18 10° N 20:39:19 35° ENE 20:42:18 16° SE
STARLINK-1073 3.8 20:38:20 10° WNW 20:42:24 56° SSW 20:45:22 18° SE
SL-8 R/B 4.0 20:37:58 10° W 20:42:37 51° SSW 20:46:16 16° SE
STARLINK-1192 4.0 20:39:35 10° W 20:43:43 67° NNW 20:47:52 10° ENE
ATLAS CENTAUR R/B 3.8 20:45:40 10° NNW 20:45:59 10° N 20:46:18 10° N
STARLINK-1121 3.9 20:43:19 10° WNW 20:47:22 52° SSW 20:50:08 19° SE
ATLAS 3B CENTAUR R/B 4.4 20:39:43 10° SW 20:47:22 18° SSW 20:50:57 14° SSE
Terra 1.9 20:44:22 16° SSE 20:48:07 70° ENE 20:52:53 10° N
SL-4 R/B 3.4 20:44:19 10° SSW 20:48:11 25° SE 20:52:06 10° E
Cosmos 1110 Rocket 4.0 20:43:13 10° SSW 20:48:25 88° ESE 20:53:37 10° NNE
STARLINK-1244 4.1 20:44:34 10° W 20:48:42 65° NNW 20:52:50 10° ENE
Spot 2 Rocket 4.5 20:44:45 10° S 20:49:31 42° W 20:54:19 10° NNW
SPOT 1/Viking Rocket 4.0 20:45:17 10° S 20:50:19 57° W 20:55:24 10° NNW
Abrixas rocket 3.4 20:48:31 10° W 20:50:57 23° SSW 20:51:50 20° S
Cosmos 1842 3.9 20:48:52 19° SSE 20:51:11 37° E 20:54:48 10° NNE
CARTOSAT-1 3.7 20:47:49 15° S 20:51:25 74° WSW 20:55:45 10° NNW
STARLINK-1106 4.0 20:48:20 10° WNW 20:52:21 49° SW 20:54:56 20° SSE
NOSS 8 (H) 4.5 20:49:47 10° SW 20:52:52 67° NW 20:55:58 10° NE
STARLINK-1138 4.1 20:49:34 10° W 20:53:41 63° NNW 20:57:49 10° ENE
STARLINK-1234 3.5 20:51:26 10° WNW 20:54:41 59° NNE 20:57:43 11° E
STARLINK-1112 4.1 20:53:18 10° WNW 20:57:16 46° SW 20:59:42 21° SSE
STARLINK-1143 4.2 20:54:33 10° W 20:58:40 61° NNW 21:02:47 10° ENE
STARLINK-1209 3.3 20:57:24 10° WNW 21:00:41 65° NNE 21:03:27 14° E
STARLINK-1204 4.5 20:57:38 10° WNW 21:01:41 51° N 21:05:44 10° E
STARLINK-1128 4.2 20:58:18 10° WNW 21:02:14 42° SW 21:04:28 22° SSE
STARLINK-1241 4.2 20:59:35 10° W 21:03:42 59° NNW 21:07:49 10° ENE
SWAS 4.5 20:59:40 10° NNW 21:04:00 79° WSW 21:06:45 22° SSE
Cosmos 1331 Rocket 4.1 21:00:04 10° SSW 21:05:13 76° WNW 21:10:27 10° NNE
Aureole 2 Rocket 4.1 21:03:19 10° SW 21:06:04 29° WNW 21:08:43 10° N
STARLINK-1238 4.5 21:02:38 10° WNW 21:06:42 51° N 21:10:46 10° E
Cosmos 1733 3.2 21:03:19 10° NNW 21:07:09 83° W 21:09:32 22° S
STARLINK-1113 4.3 21:03:18 10° WNW 21:07:12 40° SW 21:09:15 23° SSE
STARLINK-1239 4.3 21:04:35 10° W 21:08:41 58° NNW 21:12:47 10° ENE
STARLINK-1201 4.4 21:07:38 10° WNW 21:11:42 52° N 21:15:46 10° E
COSMOS 2455 4.2 21:09:45 17° SE 21:11:49 21° ESE 21:16:07 10° ENE
STARLINK-1119 4.4 21:08:20 10° WNW 21:12:10 37° SW 21:14:04 24° SSE
Cosmos 1378 3.7 21:09:41 11° SSW 21:13:09 55° WNW 21:16:50 10° N
STARLINK-1240 4.3 21:09:34 10° W 21:13:39 56° N 21:17:45 10° ENE
Cosmos 1486 Rocket 4.0 21:09:23 10° NNW 21:14:44 78° ENE 21:18:13 22° SSE
USA 215 3.9 21:08:42 10° E 21:15:06 58° NNE 21:21:29 10° WNW
Cosmos 1302 Rocket 4.0 21:10:13 11° SSW 21:15:18 74° ESE 21:20:37 10° NNE
Cosmos 1271 Rocket 3.7 21:14:22 24° SE 21:15:53 32° E 21:19:25 10° NNE
Cosmos 1544 Rocket 3.7 21:11:54 10° N 21:16:12 59° ENE 21:18:39 24° SSE
STARLINK-1206 4.4 21:12:38 10° WNW 21:16:43 52° N 21:20:47 10° E
Cosmos 1242 Rocket 3.0 21:15:26 27° SSE 21:17:02 45° E 21:20:35 10° NNE
STARLINK-1114 4.5 21:13:19 10° WNW 21:17:06 34° SW 21:18:49 24° S
MTI 3.6 21:14:16 10° NNE 21:17:26 76° ESE 21:18:58 27° S
STARLINK-1203 4.4 21:14:25 10° W 21:18:33 55° N 21:22:43 10° ENE
STARLINK-1216 4.4 21:14:34 10° W 21:18:39 55° N 21:22:44 10° ENE
STARLINK-60 3.6 21:20:10 33° SE 21:20:10 33° SE 21:23:00 10° ENE
Cosmos 1092 Rocket 4.0 21:15:30 11° SSW 21:21:23 80° W 21:27:35 10° N
STARLINK-1205 4.4 21:17:37 10° WNW 21:21:42 53° N 21:25:46 10° E
NOSS 2-2 (D) 3.6 21:19:10 10° SW 21:22:44 64° NW 21:26:53 10° NE
STARLINK-1237 4.4 21:19:34 10° W 21:23:39 54° N 21:27:44 10° ENE
CENTAUR R/B 3.2 21:16:14 10° NW 21:24:13 88° NE 21:31:08 18° SE
Cosmos 1707 3.7 21:24:35 25° SE 21:25:59 33° E 21:29:31 10° NNE
STARLINK-1218 4.3 21:22:37 10° WNW 21:26:43 54° N 21:30:48 10° E
ATLAS 3B R/B 3.2 21:20:48 10° NW 21:27:26 55° NE 21:33:57 11° ESE
SL-27 R/B 2.7 21:24:19 10° NNW 21:27:53 61° WSW 21:29:28 29° S
STARLINK-1202 4.4 21:24:35 10° W 21:28:39 53° N 21:32:44 10° ENE
NOSS 3-2 (C) 4.1 21:21:58 10° NW 21:29:25 81° SW 21:35:37 20° SSE
Cosmos 1766 4.5 21:26:22 10° NNW 21:30:03 36° W 21:32:47 16° SSW
Cosmos 1726 3.4 21:28:00 10° N 21:31:17 29° ENE 21:32:50 21° ESE
STARLINK-1254 4.3 21:27:36 10° WNW 21:31:42 55° N 21:35:47 10° E
ALOS 2 4.1 21:30:24 15° ESE 21:33:01 26° ENE 21:36:40 10° N
Cosmos 1867 3.7 21:28:53 10° NW 21:34:22 71° NE 21:38:07 21° SE
COSMOS 2487 3.8 21:32:21 10° N 21:35:28 30° ENE 21:37:03 21° ESE
STARLINK-1231 4.2 21:32:35 10° WNW 21:36:41 57° N 21:40:47 10° E
Cosmos 1943 Rocket 2.3 21:33:05 10° SW 21:38:39 75° WNW 21:44:17 10° NNE
STARLINK-1246 4.5 21:34:36 10° W 21:38:40 51° N 21:42:44 10° ENE
Cosmos 1992 Rocket 4.3 21:36:08 25° SSE 21:38:53 49° ESE 21:43:54 10° NNE
NOSS 3-4 (A) 3.7 21:36:32 21° S 21:40:11 44° ESE 21:46:08 10° NE
NOSS 3-4 (C) 3.8 21:36:40 21° S 21:40:18 44° ESE 21:46:14 10° NE
STARLINK-1232 4.2 21:37:35 10° WNW 21:41:42 58° NNE 21:45:48 10° E
SeaSat 1 3.0 21:37:53 10° NE 21:42:31 39° ESE 21:44:34 27° SSE
EO 1 Del DPAF 3.6 21:39:32 10° NNE 21:43:13 48° E 21:44:29 33° SSE
STARLINK-1208 4.1 21:42:33 10° WNW 21:46:41 60° NNE 21:50:47 10° E
Cosmos 1975 Rocket 3.9 21:44:36 14° SSW 21:48:12 48° WNW 21:52:29 10° N
STARLINK-1212 2.7 21:46:45 10° WNW 21:49:53 85° SSW 21:50:47 43° ESE
STARLINK-1105 2.7 21:47:14 10° WNW 21:50:20 84° SSW 21:51:13 44° ESE
Meteor 2-10 4.0 21:46:02 10° N 21:51:05 68° ENE 21:53:43 28° SSE
STARLINK-1247 2.7 21:48:06 10° WNW 21:51:14 83° SSW 21:52:06 44° ESE
STARLINK-1271 4.1 21:47:34 10° WNW 21:51:42 62° NNE 21:55:49 10° E
STARLINK-1227 2.7 21:48:35 10° WNW 21:51:42 83° SSW 21:52:33 45° ESE
Cosmos 292 Rocket 3.8 21:48:20 19° SSW 21:51:53 87° WNW 21:56:46 10° NNE
BREEZE-M DEB (TANK) 3.3 21:39:44 10° WSW 21:52:17 81° SSE 21:55:47 10° E
STARLINK-1226 2.7 21:49:27 10° WNW 21:52:34 82° SSW 21:53:24 45° SE
BREEZE-M DEB (TANK) 2.8 21:49:13 10° W 21:52:59 84° S 21:57:02 10° ESE
STARLINK-1215 2.7 21:50:21 10° WNW 21:53:29 81° SSW 21:54:16 47° SE
RESURS DK-1 4.3 21:53:57 15° ESE 21:54:02 15° ESE 21:56:28 10° ENE
Cosmos 2227 Rocket 4.4 21:50:14 10° N 21:54:17 19° NE 21:58:20 10° E
S3M 4.0 21:48:15 10° N 21:54:26 79° E 21:58:10 26° SSE
Cosmos 2369 Rocket 2.3 21:49:09 10° SSW 21:54:49 78° WNW 22:00:31 10° NNE
STARLINK-1217 2.7 21:52:10 10° WNW 21:55:18 79° SSW 21:56:00 49° SE
STARLINK-1229 2.7 21:53:05 10° WNW 21:56:12 78° SSW 21:56:54 50° SE
STARLINK-1154 4.0 21:52:33 10° WNW 21:56:41 64° NNE 22:00:49 10° E
STARLINK-1270 2.7 21:53:58 10° WNW 21:57:06 77° SSW 21:57:45 51° SE
Aureole 3 Rocket 4.5 21:51:59 10° NNW 21:58:05 71° W 22:03:53 21° S
STARLINK-1189 2.7 21:55:46 10° WNW 21:58:54 75° SSW 21:59:29 53° SE
STARLINK-1188 2.7 21:56:41 10° WNW 21:59:48 74° SSW 22:00:22 54° SE
ATLAS CENTAUR R/B 1.9 21:59:35 34° SSE 22:00:41 41° ESE 22:04:35 10° NE
STARLINK-1187 2.8 21:57:47 10° WNW 22:00:52 66° SSW 22:01:14 58° SSE
Cosmos 1340 Rocket 3.1 21:56:54 10° N 22:00:56 60° ENE 22:02:31 34° SE
STARLINK-1197 3.9 21:57:31 10° WNW 22:01:39 66° NNE 22:05:46 10° E
STARLINK-1191 2.7 21:59:07 10° WNW 22:02:13 71° SSW 22:02:39 58° SSE
Aureole 3 3.6 21:59:43 10° N 22:02:47 36° ENE 22:03:24 32° ESE
STARLINK-1221 2.7 22:00:05 10° WNW 22:03:10 70° SSW 22:03:34 59° SSE
STARLINK-1222 2.7 22:00:55 10° WNW 22:04:01 69° SSW 22:04:23 60° SSE
Thor Agena Rocket 3.5 21:58:42 10° NNE 22:04:03 84° ESE 22:07:12 25° SSW
STARLINK-1214 2.7 22:01:49 10° WNW 22:04:55 68° SSW 22:05:15 60° SSE
Cosmos 1025 Rocket 2.9 22:02:57 31° S 22:04:59 88° WNW 22:09:19 10° N
NOSS 7 (A) 4.5 22:03:59 37° SW 22:05:03 89° SE 22:07:59 10° NE
Cosmos 1908 4.3 22:02:29 10° N 22:05:59 33° ENE 22:07:21 25° ESE
EXPRESS MD2 4.3 22:02:13 10° W 22:06:25 87° N 22:15:26 10° E
STARLINK-1198 3.9 22:02:29 10° WNW 22:06:39 68° NNE 22:10:33 11° E
Cosmos 1553 Rocket 4.2 22:01:40 10° NNW 22:07:54 65° W 22:11:43 24° S
ATLAS 2AS CENTAUR R/B 3.0 22:00:30 10° SSW 22:08:23 73° SE 22:16:18 10° NE
Cosmos 1656 Rocket 3.6 22:04:50 23° SSW 22:08:25 75° ESE 22:14:00 10° NNE
BREEZE M DEB (TANK) 1.5 22:05:41 10° W 22:08:32 88° NNW 22:08:33 88° NNE
Cosmos 1953 2.2 22:05:15 10° N 22:09:16 87° E 22:10:41 39° SSE
BREEZE-M DEB (TANK) 4.1 21:58:22 10° WNW 22:10:02 52° SW 22:11:56 31° SSE
Cosmos 1470 3.6 22:06:37 10° NNW 22:10:16 40° W 22:11:51 26° SW
STARLINK-1228 3.3 22:07:19 10° WNW 22:10:43 52° SSW 22:11:08 48° S
STARLINK-1199 3.8 22:07:29 10° WNW 22:11:39 71° NNE 22:15:20 13° ESE
APEX 4.3 22:06:47 11° SW 22:13:03 77° WNW 22:18:17 10° NNE
STARLINK-1235 3.2 22:10:01 10° WNW 22:13:11 50° SSW 22:13:12 50° SSW
Cosmos 2292 Rocket 3.3 22:13:24 41° SE 22:14:10 50° E 22:17:17 10° NNE
Cosmos 968 Rocket 4.1 22:10:15 10° NW 22:15:07 44° WSW 22:17:31 26° SSW
STARLINK-1210 3.8 22:12:28 10° WNW 22:16:37 74° NNE 22:20:06 14° ESE
Cosmos 1655 Rocket 4.0 22:15:01 25° S 22:18:54 87° W 22:25:13 10° N
SL-4 R/B 1.6 22:20:18 44° N 22:20:18 44° N 22:21:58 10° N
Cosmos 1777 Rocket 4.4 22:15:07 10° NNW 22:20:17 56° ENE 22:23:19 24° SE
STARLINK-1219 3.7 22:17:26 10° WNW 22:21:36 77° NNE 22:24:52 16° ESE
ATLAS 5 CENTAUR R/B 1.2 22:21:46 35° SSW 22:22:59 67° SE 22:25:13 10° NE
STARLINK-1192 4.5 22:19:36 10° WNW 22:23:40 51° N 22:27:44 10° E
Cosmos 1758 4.5 22:20:01 10° NNW 22:23:44 35° W 22:25:25 24° SW
STARLINK-52 3.6 22:26:27 39° ESE 22:26:27 39° ESE 22:28:50 10° ENE
Terra 4.0 22:23:20 10° SW 22:26:22 17° W 22:29:26 10° NW
STARLINK-1211 3.6 22:22:26 10° WNW 22:26:37 81° NNE 22:29:41 18° ESE
Cosmos 2228 3.4 22:22:50 10° N 22:27:00 53° ENE 22:28:36 33° SE
SL-4 R/B 2.3 22:22:38 10° WSW 22:27:28 76° SSE 22:32:17 10° ENE
Cosmos 1726 Rocket 4.2 22:23:35 10° N 22:27:46 45° ENE 22:29:31 29° SE
Meteor 2-15 4.4 22:21:37 10° N 22:27:48 87° E 22:31:06 29° S
STARLINK-1244 4.5 22:24:35 10° WNW 22:28:39 52° N 22:32:43 10° E
STARLINK-1234 4.0 22:27:52 10° WNW 22:30:17 32° WSW 22:30:17 32° WSW
STARLINK-1245 3.6 22:27:24 10° WNW 22:31:35 84° NNE 22:34:26 19° ESE
Cosmos 1300 4.5 22:28:49 10° NNE 22:31:56 23° ENE 22:33:33 18° ESE
In-Cosmos 22 4.0 22:30:05 31° S 22:32:44 87° E 22:38:03 10° NNE
Cosmos 921 Rocket 4.4 22:31:52 22° ESE 22:32:45 24° E 22:36:14 10° NE
STARLINK-1138 4.4 22:29:35 10° WNW 22:33:40 52° N 22:37:44 10° E
STARLINK-1233 3.5 22:32:22 10° WNW 22:36:32 88° NNE 22:39:11 22° ESE
STARLINK-1209 4.4 22:34:06 10° W 22:36:14 27° WSW 22:36:14 27° WSW
Cosmos 2266 Rocket 3.9 22:33:43 28° S 22:37:10 86° W 22:43:15 10° N
STARLINK-1143 4.4 22:34:33 10° WNW 22:38:38 53° N 22:42:43 10° E
STARLINK-1204 3.5 22:37:21 10° WNW 22:41:31 88° SSW 22:43:59 24° ESE
SJ 16-02 3.5 22:39:55 10° N 22:43:19 21° NE 22:46:42 10° ESE
STARLINK-1241 4.4 22:39:35 10° WNW 22:43:41 54° N 22:47:45 10° E
STARLINK-1238 3.5 22:42:21 10° WNW 22:46:31 84° SSW 22:48:47 26° ESE
Meteor 2-15 Rocket 4.4 22:41:33 10° NNW 22:47:43 84° W 22:50:55 30° S
STARLINK-1239 4.3 22:44:34 10° WNW 22:48:40 55° N 22:52:45 10° E
Helios 1B rocket 4.0 22:45:49 10° NE 22:49:05 22° E 22:50:09 20° ESE
Cosmos 1674 2.5 22:48:20 49° S 22:49:16 86° E 22:53:05 10° N
STARLINK-1201 3.5 22:47:20 10° WNW 22:51:30 80° SSW 22:53:33 29° ESE
STARLINK-1240 4.3 22:49:32 10° WNW 22:53:38 56° N 22:57:44 10° E
STARLINK-1353 4.5 22:55:17 29° ESE 22:55:17 29° ESE 22:57:51 10° ENE
STARLINK-60 3.4 22:52:56 10° W 22:56:05 60° NNW 22:59:15 10° ENE
STARLINK-1206 3.5 22:52:19 10° WNW 22:56:29 75° SSW 22:58:21 31° SE
COSMOS 2455 2.9 22:52:50 21° SW 22:57:03 83° NW 23:03:08 10° NE
STARLINK-1375 4.4 22:58:33 31° ESE 22:58:33 31° ESE 23:01:17 10° ENE
USA 215 3.2 22:52:57 18° SE 22:58:03 71° SW 23:04:37 10° WNW
Cosmos 2219 3.8 22:52:31 10° NNW 22:58:05 54° NE 23:02:17 17° SE
STARLINK-1216 4.2 22:54:31 10° WNW 22:58:37 58° NNE 23:02:43 10° E
STARLINK-1203 4.2 22:54:36 10° WNW 22:58:46 58° NNE 23:02:56 10° E
STARLINK-1352 4.3 23:01:56 30° ESE 23:01:56 30° ESE 23:04:26 10° ENE
STARLINK-1350 4.2 23:01:49 34° ESE 23:01:49 34° ESE 23:04:43 10° ENE
STARLINK-1205 3.5 22:57:18 10° WNW 23:01:26 71° SSW 23:03:07 34° SE
Cosmos 2297 Rocket 3.0 22:56:51 10° NNW 23:02:21 49° NE 23:07:00 14° SE
Helios 1A 2.9 23:01:35 42° S 23:02:56 78° WSW 23:07:09 10° NNW
STARLINK-1237 4.2 22:59:31 10° WNW 23:03:38 59° NNE 23:07:44 10° E
Lacrosse 4 Rocket 3.7 23:02:25 10° NNW 23:05:56 23° NE 23:09:22 10° E
Cosmos 1726 3.8 23:03:23 10° NW 23:06:23 23° W 23:07:20 21° WSW
STARLINK-1218 3.5 23:02:18 10° WNW 23:06:25 67° SSW 23:07:55 37° SE
Cosmos 1174 4.2 23:06:36 27° WSW 23:08:06 50° NW 23:11:56 10° NNE
STARLINK-1368 4.0 23:08:27 39° SE 23:08:27 39° SE 23:11:41 10° ENE
STARLINK-1202 4.1 23:04:31 10° WNW 23:08:37 61° NNE 23:12:44 10° E
ALOS 2 3.4 23:07:47 31° SW 23:09:11 39° W 23:13:20 10° NNW
Timation 2 Rocket 3.9 23:03:27 10° NNW 23:09:46 71° WSW 23:12:54 30° SSE
Cosmos 2058 Rocket 3.1 23:05:50 10° N 23:10:18 80° E 23:11:58 38° SSE
COSMOS 2487 4.1 23:07:42 10° NW 23:10:22 21° W 23:10:32 21° WSW
STARLINK-1254 3.5 23:07:16 10° WNW 23:11:23 63° SSW 23:12:41 40° SSE
STARLINK-1369 3.8 23:11:47 42° SE 23:11:47 42° SE 23:15:10 10° ENE
CENTAUR R/B 4.2 23:07:36 10° NW 23:14:26 30° WSW 23:18:17 21° SSW
STARLINK-1372 3.7 23:15:07 44° SE 23:15:07 44° SE 23:18:41 10° ENE
STARLINK-1231 3.6 23:12:15 10° WNW 23:16:20 59° SSW 23:17:27 42° SSE
Meteor 2-5 Rocket 3.6 23:14:12 32° S 23:16:54 89° W 23:22:35 10° NNE
ATLAS 3B R/B 3.1 23:11:41 10° NW 23:18:04 44° WSW 23:21:10 28° S
STARLINK-1378 3.6 23:18:28 47° SSE 23:18:31 47° SSE 23:22:11 10° ENE
STARLINK-1246 4.0 23:14:30 10° WNW 23:18:37 65° NNE 23:22:46 10° E
SeaSat 1 3.6 23:15:28 10° NNE 23:20:03 39° NW 23:24:21 11° WSW
SL-14 R/B 3.2 23:19:12 47° SSE 23:20:09 69° E 23:24:00 10° NNE
Cosmos 1606 Rocket 4.2 23:16:08 10° NNW 23:20:15 43° W 23:21:36 32° SW
FALCON 9 DEB 3.0 23:20:07 45° WSW 23:21:05 86° SSE 23:24:33 10° ENE
STARLINK-1232 3.7 23:17:15 10° WNW 23:21:19 55° SSW 23:22:15 44° SSE
STARLINK-1379 3.5 23:21:51 49° SSE 23:22:01 49° SSE 23:25:43 10° ENE
STARLINK-1329 3.5 23:23:14 50° SSE 23:23:29 51° SSE 23:27:10 10° ENE
STARLINK-1224 3.9 23:19:28 10° WNW 23:23:37 67° NNE 23:27:44 10° E
Meteor 2-21 4.4 23:20:59 30° S 23:24:14 90° E 23:30:29 10° N
STARLINK-29 3.3 23:24:02 21° W 23:25:58 63° NNW 23:29:09 10° ENE
STARLINK-1208 3.7 23:22:13 10° WNW 23:26:16 51° SSW 23:27:00 45° S
SL-16 R/B 4.1 23:21:10 10° ESE 23:26:21 29° ENE 23:31:34 10° N
STARLINK-1362 3.5 23:26:40 51° S 23:27:03 53° SSE 23:30:46 10° ENE
ATLAS CENTAUR R/B 1.3 23:26:14 10° NW 23:28:28 70° NE 23:32:42 10° ESE
STARLINK-1225 3.9 23:24:28 10° WNW 23:28:37 70° NNE 23:32:45 10° ESE
Cosmos 1656 4.5 23:27:53 26° SSE 23:30:12 38° ESE 23:35:21 10° NE
STARLINK-1373 3.4 23:30:05 51° S 23:30:36 56° SSE 23:34:22 10° ENE
NOSS 3-4 (A) 4.3 23:25:10 10° WSW 23:31:02 50° NW 23:37:23 10° NE
NOSS 3-4 (C) 4.2 23:25:15 10° WSW 23:31:07 50° NW 23:37:29 10° NE
STARLINK-1271 3.8 23:27:15 10° WNW 23:31:15 48° SW 23:31:49 44° S
RESURS DK-1 2.6 23:29:48 32° SW 23:31:33 65° WNW 23:35:42 10° NNE
STARLINK-1365 3.4 23:31:12 50° SSW 23:31:51 59° SSE 23:35:38 10° ENE
STARLINK-1230 3.8 23:29:26 10° WNW 23:33:35 73° NNE 23:37:44 10° ESE
STARLINK-1390 3.4 23:33:34 50° SSW 23:34:13 59° SSE 23:37:59 10° ENE
Cosmos 1697 Rocket 4.2 23:32:47 18° SE 23:35:19 24° ESE 23:39:46 10° NE
Cosmos 2084 3.5 23:33:36 31° SW 23:35:42 85° NW 23:40:12 10° NE
STARLINK-1154 3.9 23:32:15 10° WNW 23:36:13 45° SW 23:36:35 43° SSW
Cosmos 1812 Rocket 4.4 23:32:11 10° N 23:36:31 46° ENE 23:38:55 23° SE
Cosmos 1626 2.1 23:36:00 47° SSW 23:36:58 72° W 23:40:41 10° N
BREEZE-M R/B 3.5 23:31:44 15° SW 23:37:10 51° SSE 23:40:43 10° E
STARLINK-1243 3.7 23:34:26 10° WNW 23:38:36 76° NNE 23:42:44 10° ESE
Cosmos 2227 Rocket 2.3 23:33:38 10° NNW 23:39:22 75° ENE 23:43:29 19° SE
Okean 1-7 Rocket 3.7 23:37:39 36° SSW 23:39:25 68° WNW 23:43:58 10° N
ATLAS CENTAUR R/B 2.9 23:35:45 10° WSW 23:39:40 33° NW 23:43:22 10° NNE
STARLINK-1197 3.9 23:37:13 10° WNW 23:41:09 42° SW 23:41:21 41° SSW
CZ-4 R/B 3.8 23:37:02 10° NNE 23:41:50 81° ESE 23:43:50 35° S
STARLINK-1236 3.7 23:39:24 10° WNW 23:43:34 79° NNE 23:47:43 10° ESE
STARLINK-1198 4.1 23:42:13 10° WNW 23:46:06 39° SW 23:46:07 39° SW
Cosmos 1602 Rocket 3.9 23:47:23 32° SSE 23:49:06 53° E 23:53:19 10° NNE
SL-08 ROCKET BODY 4.4 23:46:46 28° S 23:49:55 71° E 23:55:45 10° NNE
STARLINK-1199 4.2 23:47:15 10° WNW 23:50:55 36° SW 23:50:55 36° SW
STARLINK-1269 3.6 23:49:22 10° WNW 23:53:32 87° NNE 23:57:41 10° ESE
STARLINK-1210 4.3 23:52:15 10° WNW 23:55:42 33° SW 23:55:42 33° SW
